Total_Precipitation_Accumulation
2.16 2.12 1.94 1.79 1.46 1.31 1.53 1.69 1.44 1.46 1.51 1.47 1.49 1.52 1.57 1.69 2.51 3.11 3.61 1.88 2.74 3.00 0.89 0.57 0.65 0.54 0.37 0.43 0.74 0.67 1.18 0.95 1.24 1.23 1.05 1.14 1.08 0.88 0.75 0.52 0.42 0.62 1.14 1.06 0.90 1.13 0.44 0.14 0.29 0.68 1.00 1.03 1.04 1.18
2.63 2.24 1.87 1.55 1.25 1.31 1.49 1.70 1.47 1.43 1.35 1.39 1.35 1.33 1.55 1.80 2.37 3.11 3.47 2.13 1.96 3.03 1.76 0.68 0.82 0.57 0.38 0.38 0.73 0.88 0.98 1.01 1.18 1.29 1.02 0.86 0.90 0.90 0.90 0.94 0.50 0.63 0.62 0.76 0.77 0.62 0.44 0.23 0.37 0.66 0.72 0.78 0.79 0.85
2.75 2.48 2.19 1.62 1.38 1.39 1.51 1.59 1.38 1.26 1.18 1.21 1.36 1.27 1.53 1.91 2.23 3.19 2.95 2.16 3.18 4.47 2.26 0.93 0.80 0.57 0.54 0.36 0.51 0.92 0.54 0.59 0.77 0.81 1.26 1.03 0.89 0.61 0.82 0.72 0.75 0.92 0.53 0.71 0.72 0.80 0.33 0.23 0.29 0.40 0.44 0.60 0.53 0.51
2.53 2.34 1.92 1.62 1.38 1.43 1.30 1.31 1.19 1.10 1.10 1.16 1.29 1.51 1.69 2.19 2.34 3.12 2.68 2.41 3.02 3.13 2.53 1.08 0.57 0.49 0.55 0.62 0.47 0.63 0.64 0.54 0.68 1.02 1.28 1.01 0.87 0.67 0.99 0.66 0.66 1.02 0.66 0.82 1.04 1.56 0.78 0.66 0.74 0.69 0.49 0.48 0.41 0.42
1.94 1.83 1.70 1.53 1.20 1.21 1.16 1.30 1.26 1.10 1.20 1.15 1.31 1.64 2.28 2.63 3.08 3.65 2.48 2.48 2.45 2.62 2.51 1.22 0.52 0.45 0.47 0.64 0.53 0.55 0.65 0.81 0.96 1.12 1.13 0.70 0.50 0.82 1.19 0.67 0.61 0.72 0.94 0.99 1.18 1.36 1.25 1.15 0.84 0.54 0.38 0.34 0.26 0.19
1.34 1.31 1.50 1.55 1.16 1.11 1.04 1.19 1.33 1.29 1.18 1.20 1.54 1.81 2.46 3.26 4.51 5.52 7.01 4.74 2.59 2.12 3.11 2.18 0.78 0.35 0.41 0.54 0.72 0.90 0.98 1.22 1.33 1.21 0.77 0.60 0.47 1.17 1.53 0.88 0.73 0.82 1.10 0.98 0.92 0.91 0.75 0.70 0.47 0.34 0.27 0.26 0.20 0.13
1.17 1.24 1.42 1.26 1.02 0.91 0.95 1.12 1.21 1.22 1.41 1.52 1.79 2.02 3.10 4.18 4.20 3.53 3.02 2.32 1.63 1.96 2.97 2.65 1.64 0.86 0.49 0.65 1.11 1.06 1.27 1.74 1.91 1.59 0.94 0.48 0.54 1.19 1.41 1.00 0.78 0.81 0.87 0.68 0.59 0.55 0.49 0.41 0.31 0.19 0.14 0.14 0.12 0.11
1.21 1.11 0.95 0.85 0.73 0.75 0.85 0.99 1.09 1.24 1.51 1.79 2.16 3.20 4.06 4.42 3.91 2.58 1.06 0.91 1.06 2.07 2.27 2.32 2.05 2.38 1.12 1.09 1.52 1.34 1.45 1.91 2.15 1.64 0.99 0.61 0.86 1.31 1.46 0.78 0.45 0.38 0.40 0.29 0.21 0.12 0.13 0.09 0.07 0.06 0.05 0.07 0.12 0.18
0.78 0.69 0.67 0.60 0.66 0.78 0.82 0.82 1.08 1.29 1.71 2.56 3.65 4.85 6.46 5.53 4.28 2.41 1.24 1.42 1.47 1.98 1.93 1.09 1.45 2.56 2.00 1.49 1.76 1.83 1.64 1.99 1.35 1.16 0.89 0.97 0.99 1.23 1.03 0.43 0.32 0.19 0.17 0.15 0.07 0.01 0.00 0.00 0.02 0.04 0.05 0.06 0.10 0.19
0.65 0.59 0.58 0.62 0.71 0.73 0.80 1.07 1.25 1.68 2.44 3.28 4.27 5.02 6.42 3.88 2.40 2.71 4.42 4.23 3.33 2.02 1.33 0.85 0.89 1.53 1.99 2.05 1.76 2.24 1.72 1.27 1.04 0.70 0.75 1.00 0.83 0.41 0.21 0.19 0.16 0.12 0.13 0.09 0.04 0.04 0.04 0.05 0.08 0.14 0.21 0.23 0.25 0.25
0.69 0.63 0.66 0.69 0.81 1.13 1.45 1.42 1.63 2.10 2.57 3.13 3.55 4.15 3.63 2.91 3.02 3.57 3.48 2.61 1.85 1.06 0.43 0.43 0.74 1.42 1.56 1.77 1.77 1.47 1.92 1.51 1.04 0.86 0.78 0.93 0.64 0.35 0.17 0.11 0.07 0.09 0.06 0.07 0.11 0.14 0.14 0.16 0.19 0.27 0.32 0.33 0.31 0.28
0.67 0.70 0.72 0.76 0.89 1.12 1.22 1.33 1.27 1.56 1.85 1.68 2.14 2.69 3.42 3.27 2.62 2.25 1.79 1.18 0.71 0.47 0.37 0.34 0.49 0.75 1.46 1.73 1.69 1.19 1.35 1.46 1.78 1.22 1.16 0.92 0.58 0.24 0.16 0.18 0.14 0.12 0.13 0.13 0.14 0.18 0.26 0.32 0.33 0.29 0.27 0.27 0.33 0.41
0.51 0.62 0.78 0.86 0.82 0.90 1.08 1.20 1.36 1.42 1.55 1.79 1.63 2.04 2.16 1.90 1.68 1.39 1.05 0.77 0.57 0.28 0.30 0.38 0.65 0.87 1.13 1.52 1.68 1.35 1.44 1.40 1.33 1.49 0.87 0.70 0.39 0.38 0.44 0.49 0.47 0.36 0.31 0.32 0.36 0.33 0.29 0.32 0.33 0.34 0.42 0.53 0.60 0.74
0.47 0.59 0.58 0.70 0.92 1.18 1.31 1.41 1.74 1.90 1.94 1.74 1.35 1.32 1.24 1.13 0.79 0.80 0.83 0.81 0.59 0.42 0.34 0.41 0.78 1.06 1.04 1.17 1.59 1.46 1.55 1.16 1.26 0.99 0.67 0.65 0.63 0.77 0.69 0.54 0.45 0.50 0.50 0.52 0.59 0.59 0.62 0.68 0.85 0.94 0.97 1.07 0.94 0.99
0.49 0.43 0.63 1.03 1.15 1.14 1.14 1.27 1.65 1.45 1.48 1.28 0.83 0.75 0.78 1.00 0.81 0.83 0.77 0.62 0.63 0.72 0.76 0.93 1.27 1.28 1.02 1.21 1.03 1.03 0.94 0.78 0.63 0.78 0.89 0.94 0.90 0.85 0.71 0.67 0.64 0.66 0.67 0.68 0.75 0.73 0.85 0.88 0.76 0.90 0.99 0.94 0.78 0.82
0.27 0.49 0.73 0.80 0.66 0.74 0.95 1.54 1.70 0.99 0.91 0.78 0.87 0.98 0.90 0.98 1.02 0.86 0.72 0.69 0.83 1.11 1.11 1.23 1.24 1.23 1.16 0.86 0.65 0.59 0.59 0.72 0.96 0.82 0.92 0.94 0.85 0.90 0.88 0.82 0.85 0.87 0.79 0.80 0.83 0.79 0.75 0.71 0.66 0.72 0.71 0.65 0.63 0.51
0.27 0.46 0.72 0.60 0.65 0.76 1.13 1.48 1.35 1.17 0.82 0.75 1.22 1.36 1.19 1.19 1.36 1.15 0.97 0.88 0.89 0.89 0.78 0.82 0.79 0.72 0.76 0.53 0.57 0.59 0.85 0.93 0.89 0.93 0.93 0.93 0.95 1.01 1.05 0.94 0.87 0.74 0.67 0.68 0.67 0.65 0.66 0.68 0.53 0.39 0.45 0.56 0.41 0.35
0.44 0.46 0.54 0.54 0.61 0.88 0.98 0.90 0.95 0.67 0.65 0.95 1.18 1.41 0.87 1.00 0.96 0.85 0.85 0.68 0.62 0.61 0.66 0.78 0.63 0.56 0.73 0.89 0.94 0.90 0.97 1.03 1.05 1.01 0.98 1.01 0.96 0.89 0.80 0.71 0.72 0.60 0.55 0.56 0.49 0.45 0.43 0.39 0.29 0.32 0.29 0.28 0.20 0.19
0.67 0.57 0.77 0.82 0.58 0.64 0.74 0.53 0.34 0.46 0.82 0.85 0.90 0.72 0.55 0.68 0.68 0.62 0.43 0.29 0.22 0.38 0.55 0.47 0.56 0.79 0.91 0.96 0.97 0.96 0.94 0.88 0.90 0.87 0.79 0.79 0.78 0.73 0.68 0.59 0.57 0.59 0.48 0.46 0.33 0.25 0.24 0.19 0.19 0.16 0.15 0.12 0.16 0.20
0.95 0.86 0.88 0.68 0.34 0.38 0.26 0.22 0.06 0.18 0.41 0.51 0.48 0.27 0.23 0.41 0.38 0.23 0.16 0.10 0.13 0.23 0.57 0.64 0.79 0.95 0.89 0.85 0.72 0.74 0.74 0.67 0.52 0.41 0.53 0.60 0.62 0.48 0.54 0.47 0.44 0.40 0.31 0.28 0.23 0.19 0.16 0.15 0.17 0.16 0.16 0.15 0.17 0.20
0.91 1.00 0.77 0.38 0.29 0.26 0.21 0.12 0.08 0.08 0.16 0.22 0.22 0.11 0.16 0.18 0.18 0.17 0.14 0.10 0.30 0.34 0.57 0.74 0.73 0.75 0.50 0.46 0.41 0.36 0.44 0.41 0.41 0.30 0.37 0.48 0.51 0.33 0.35 0.38 0.33 0.29 0.25 0.26 0.24 0.27 0.22 0.23 0.20 0.15 0.15 0.13 0.15 0.14
0.66 0.57 0.59 0.29 0.23 0.20 0.12 0.06 0.09 0.06 0.07 0.15 0.18 0.17 0.26 0.26 0.21 0.13 0.10 0.21 0.56 0.74 0.69 0.51 0.41 0.32 0.22 0.26 0.24 0.18 0.24 0.20 0.25 0.35 0.45 0.37 0.41 0.40 0.43 0.46 0.34 0.32 0.31 0.31 0.27 0.24 0.22 0.17 0.12 0.09 0.08 0.12 0.09 0.09
0.30 0.28 0.31 0.18 0.17 0.17 0.16 0.13 0.12 0.06 0.07 0.13 0.11 0.16 0.16 0.14 0.11 0.13 0.31 0.46 0.78 0.80 0.55 0.29 0.20 0.16 0.19 0.29 0.20 0.17 0.14 0.11 0.15 0.22 0.26 0.28 0.29 0.32 0.31 0.33 0.30 0.28 0.26 0.22 0.16 0.14 0.14 0.08 0.04 0.05 0.08 0.10 0.13 0.14
0.23 0.33 0.46 0.27 0.14 0.20 0.14 0.21 0.14 0.12 0.08 0.08 0.11 0.14 0.14 0.12 0.14 0.27 0.44 0.48 0.68 0.45 0.25 0.29 0.28 0.24 0.22 0.22 0.22 0.24 0.27 0.21 0.23 0.28 0.29 0.23 0.22 0.23 0.16 0.15 0.13 0.11 0.09 0.07 0.03 0.04 0.06 0.09 0.10 0.14 0.12 0.12 0.13 0.14
0.43 0.32 0.41 0.34 0.17 0.13 0.10 0.13 0.15 0.10 0.09 0.05 0.08 0.13 0.08 0.05 0.15 0.26 0.29 0.58 0.47 0.36 0.33 0.32 0.33 0.36 0.37 0.38 0.37 0.33 0.24 0.17 0.14 0.16 0.19 0.13 0.15 0.15 0.11 0.07 0.08 0.08 0.06 0.08 0.08 0.07 0.08 0.10 0.14 0.16 0.16 0.16 0.18 0.20
0.59 0.34 0.25 0.22 0.16 0.15 0.11 0.13 0.11 0.09 0.08 0.13 0.16 0.13 0.09 0.14 0.13 0.26 0.47 0.61 0.45 0.42 0.44 0.43 0.35 0.27 0.26 0.26 0.26 0.22 0.15 0.10 0.07 0.09 0.11 0.05 0.09 0.13 0.14 0.11 0.11 0.14 0.10 0.10 0.10 0.11 0.12 0.12 0.14 0.17 0.23 0.22 0.20 0.21
0.37 0.35 0.16 0.15 0.18 0.19 0.25 0.21 0.19 0.21 0.20 0.21 0.20 0.15 0.20 0.23 0.26 0.60 0.76 0.54 0.46 0.46 0.33 0.26 0.18 0.14 0.16 0.17 0.19 0.14 0.06 0.04 0.05 0.06 0.06 0.09 0.09 0.08 0.11 0.16 0.18 0.14 0.06 0.10 0.13 0.12 0.13 0.16 0.17 0.20 0.24 0.24 0.22 0.23
0.28 0.20 0.29 0.29 0.39 0.38 0.31 0.26 0.29 0.37 0.45 0.35 0.27 0.24 0.28 0.28 0.59 0.71 0.58 0.54 0.42 0.29 0.22 0.17 0.14 0.08 0.09 0.12 0.20 0.16 0.11 0.09 0.05 0.04 0.06 0.14 0.12 0.07 0.07 0.10 0.09 0.06 0.06 0.12 0.18 0.21 0.22 0.21 0.20 0.19 0.21 0.23 0.27 0.32
0.19 0.17 0.19 0.23 0.22 0.27 0.28 0.34 0.40 0.36 0.31 0.26 0.32 0.44 0.32 0.35 0.56 0.53 0.52 0.42 0.35 0.23 0.25 0.26 0.34 0.18 0.16 0.17 0.25 0.24 0.17 0.13 0.08 0.10 0.09 0.15 0.18 0.17 0.12 0.12 0.16 0.16 0.16 0.18 0.27 0.28 0.31 0.31 0.25 0.25 0.24 0.25 0.27 0.30
0.08 0.07 0.13 0.07 0.11 0.27 0.37 0.28 0.29 0.21 0.12 0.15 0.25 0.28 0.25 0.55 0.79 0.54 0.39 0.33 0.32 0.31 0.28 0.24 0.25 0.20 0.21 0.21 0.25 0.35 0.40 0.34 0.21 0.16 0.14 0.12 0.12 0.12 0.12 0.13 0.14 0.17 0.19 0.17 0.19 0.30 0.33 0.33 0.34 0.34 0.25 0.27 0.30 0.29
0.06 0.11 0.11 0.08 0.18 0.24 0.24 0.15 0.14 0.13 0.14 0.16 0.21 0.26 0.30 0.49 0.53 0.47 0.35 0.37 0.31 0.20 0.18 0.23 0.24 0.24 0.25 0.27 0.26 0.25 0.41 0.42 0.28 0.18 0.11 0.09 0.08 0.09 0.11 0.11 0.13 0.18 0.25 0.27 0.24 0.24 0.27 0.29 0.30 0.29 0.25 0.23 0.24 0.20
0.12 0.15 0.12 0.16 0.29 0.26 0.26 0.26 0.20 0.24 0.26 0.30 0.35 0.37 0.40 0.28 0.25 0.30 0.31 0.31 0.30 0.22 0.23 0.25 0.32 0.40 0.32 0.38 0.40 0.37 0.32 0.28 0.22 0.16 0.13 0.12 0.13 0.13 0.11 0.10 0.12 0.17 0.24 0.27 0.26 0.27 0.27 0.25 0.29 0.29 0.27 0.24 0.22 0.20
0.11 0.08 0.11 0.15 0.18 0.20 0.24 0.26 0.18 0.16 0.27 0.34 0.36 0.35 0.38 0.26 0.27 0.33 0.27 0.27 0.46 0.38 0.30 0.29 0.34 0.44 0.43 0.33 0.30 0.28 0.25 0.23 0.18 0.16 0.14 0.15 0.13 0.12 0.11 0.12 0.12 0.14 0.17 0.21 0.23 0.24 0.24 0.23 0.25 0.26 0.24 0.19 0.19 0.16